| time (UTC) | temp F | wind direction | speed MPH | gust MPH | rain 1hr in | rain 24hr in | rain mn in | humidity % | barometer mb |
| 20260905030023 | 57 | 221 | 1.0 | 9.0 | 0.00 | 0.36 | 0.00 | 96 | 1012.3 |
| 20260905024521 | 57 | 250 | 0.0 | 4.0 | 0.00 | 0.36 | 0.00 | 96 | 1012.1 |
| 20260905023042 | 57 | 277 | 1.0 | 9.0 | 0.00 | 0.36 | 0.00 | 96 | 1012.0 |
| 20260905021518 | 57 | 231 | 0.0 | 3.0 | 0.00 | 0.36 | 0.00 | 96 | 1011.8 |
| 20260905020023 | 57 | 263 | 2.0 | 8.0 | 0.00 | 0.36 | 0.00 | 97 | 1011.8 |
| 20260905014514 | 57 | 261 | 0.0 | 4.0 | 0.00 | 0.36 | 0.00 | 97 | 1011.8 |
| 20260905013014 | 57 | 275 | 0.0 | 9.0 | 0.00 | 0.36 | 0.00 | 97 | 1011.6 |
| 20260905011512 | 58 | 261 | 1.0 | 4.0 | 0.00 | 0.36 | 0.00 | 96 | 1011.6 |
| 20260905010011 | 58 | 152 | 0.0 | 5.0 | 0.00 | 0.36 | 0.00 | 97 | 1011.6 |
| 20260905004514 | 58 | 252 | 1.0 | 7.0 | 0.00 | 0.36 | 0.00 | 97 | 1011.5 |
| 20260905003007 | 59 | 256 | 2.0 | 9.0 | 0.00 | 0.36 | 0.00 | 97 | 1011.4 |
| 20260905001515 | 59 | 186 | 0.0 | 6.0 | 0.00 | 0.36 | 0.00 | 97 | 1011.2 |
| 20260905000003 | 59 | 191 | 0.0 | 4.0 | 0.00 | 0.36 | 0.00 | 97 | 1011.1 |
| 20260904234502 | 59 | 277 | 0.0 | 4.0 | 0.00 | 0.36 | 0.00 | 97 | 1011.0 |
| 20260904233103 | 59 | 223 | 0.0 | 5.0 | 0.00 | 0.36 | 0.00 | 97 | 1011.0 |
| 20260904231603 | 59 | 252 | 0.0 | 4.0 | 0.00 | 0.36 | 0.00 | 97 | 1010.9 |
| 20260904230055 | 60 | 227 | 1.0 | 4.0 | 0.00 | 0.36 | 0.00 | 97 | 1010.7 |
| 20260904224602 | 60 | 189 | 1.0 | 3.0 | 0.00 | 0.36 | 0.00 | 97 | 1010.7 |
| 20260904223055 | 60 | 269 | 0.0 | 5.0 | 0.00 | 0.36 | 0.00 | 97 | 1010.4 |
| 20260904221549 | 60 | 244 | 0.0 | 4.0 | 0.00 | 0.36 | 0.00 | 97 | 1010.1 |
| 20260904220107 | 60 | 271 | 1.0 | 5.0 | 0.00 | 0.36 | 0.00 | 97 | 1009.7 |
| 20260904214544 | 60 | 298 | 0.0 | 4.0 | 0.00 | 0.36 | 0.36 | 97 | 1009.5 |
| 20260904213043 | 60 | 317 | 0.0 | 9.0 | 0.00 | 0.36 | 0.36 | 97 | 1009.1 |
| 20260904211551 | 60 | 276 | 0.0 | 3.0 | 0.00 | 0.36 | 0.36 | 97 | 1008.9 |
| 20260904210047 | 61 | 286 | 1.0 | 4.0 | 0.00 | 0.36 | 0.36 | 97 | 1008.9 |
| 20260904204547 | 61 | 188 | 1.0 | 10.0 | 0.00 | 0.36 | 0.36 | 97 | 1008.7 |
| 20260904203044 | 60 | 248 | 1.0 | 5.0 | 0.00 | 0.36 | 0.36 | 97 | 1008.5 |
| 20260904201539 | 60 | 7 | 0.0 | 5.0 | 0.00 | 0.36 | 0.36 | 97 | 1008.2 |
| 20260904200040 | 61 | 163 | 0.0 | 6.0 | 0.00 | 0.36 | 0.36 | 97 | 1008.1 |
| 20260904194550 | 61 | 254 | 2.0 | 5.0 | 0.00 | 0.36 | 0.36 | 97 | 1008.2 |
| 20260904193041 | 61 | 14 | 0.0 | 7.0 | 0.00 | 0.36 | 0.36 | 96 | 1008.1 |
| 20260904191542 | 60 | 269 | 0.0 | 9.0 | 0.00 | 0.36 | 0.36 | 96 | 1007.9 |
| 20260904190035 | 60 | 193 | 1.0 | 8.0 | 0.03 | 0.36 | 0.36 | 96 | 1007.8 |
| 20260904184535 | 60 | 198 | 1.0 | 3.0 | 0.06 | 0.36 | 0.36 | 96 | 1008.0 |
| 20260904183038 | 61 | 287 | 2.0 | 7.0 | 0.06 | 0.36 | 0.36 | 95 | 1007.5 |
| 20260904181532 | 61 | 277 | 1.0 | 9.0 | 0.08 | 0.36 | 0.36 | 95 | 1007.4 |
| 20260904180030 | 61 | 226 | 2.0 | 6.0 | 0.06 | 0.33 | 0.33 | 95 | 1007.6 |
| 20260904174556 | 62 | 207 | 3.0 | 14.0 | 0.03 | 0.31 | 0.31 | 94 | 1006.8 |
| 20260904173029 | 63 | 229 | 3.0 | 8.0 | 0.02 | 0.30 | 0.30 | 94 | 1006.9 |
| 20260904171528 | 63 | 192 | 3.0 | 9.0 | 0.01 | 0.28 | 0.28 | 94 | 1007.0 |
| 20260904170027 | 63 | 271 | 0.0 | 8.0 | 0.00 | 0.28 | 0.28 | 94 | 1007.0 |
| 20260904164526 | 64 | 264 | 2.0 | 6.0 | 0.00 | 0.28 | 0.28 | 94 | 1006.8 |
| 20260904163026 | 64 | 244 | 2.0 | 10.0 | 0.00 | 0.28 | 0.28 | 94 | 1007.0 |
| 20260904160028 | 66 | 263 | 1.0 | 11.0 | 0.00 | 0.28 | 0.28 | 94 | 1006.3 |
| 20260904154527 | 67 | 273 | 2.0 | 9.0 | 0.06 | 0.28 | 0.28 | 94 | 1006.7 |
| 20260904153034 | 67 | 220 | 1.0 | 10.0 | 0.27 | 0.28 | 0.28 | 94 | 1006.2 |
| 20260904151527 | 68 | 225 | 4.0 | 11.0 | 0.27 | 0.28 | 0.28 | 93 | 1006.1 |
| 20260904150025 | 69 | 269 | 4.0 | 16.0 | 0.27 | 0.28 | 0.28 | 90 | 1005.7 |
| 20260904144523 | 73 | 244 | 4.0 | 21.0 | 0.20 | 0.22 | 0.21 | 81 | 1005.8 |
| 20260904143024 | 76 | 196 | 4.0 | 11.0 | 0.00 | 0.02 | 0.01 | 67 | 1004.0 |
| 20260904141520 | 77 | 271 | 3.0 | 24.0 | 0.00 | 0.02 | 0.01 | 66 | 1004.0 |
| 20260904140020 | 76 | 295 | 3.0 | 17.0 | 0.00 | 0.02 | 0.01 | 66 | 1004.2 |
| 20260904134516 | 77 | 103 | 2.0 | 15.0 | 0.00 | 0.02 | 0.01 | 66 | 1004.6 |
| 20260904133013 | 75 | 259 | 2.0 | 24.0 | 0.00 | 0.02 | 0.01 | 69 | 1004.6 |
| 20260904131509 | 75 | 223 | 3.0 | 14.0 | 0.00 | 0.02 | 0.01 | 71 | 1004.9 |
| 20260904130007 | 74 | 290 | 2.0 | 11.0 | 0.00 | 0.02 | 0.01 | 72 | 1005.2 |
| 20260904124506 | 74 | 306 | 5.0 | 16.0 | 0.00 | 0.02 | 0.01 | 72 | 1005.2 |
| 20260904123006 | 73 | 354 | 1.0 | 9.0 | 0.00 | 0.02 | 0.01 | 73 | 1005.5 |
| 20260904121505 | 73 | 290 | 4.0 | 18.0 | 0.00 | 0.02 | 0.01 | 72 | 1005.8 |
| 20260904120005 | 74 | 196 | 4.0 | 14.0 | 0.00 | 0.02 | 0.01 | 72 | 1006.0 |
| 20260904114601 | 73 | 148 | 4.0 | 12.0 | 0.00 | 0.02 | 0.01 | 72 | 1006.2 |
| 20260904113102 | 74 | 166 | 3.0 | 15.0 | 0.00 | 0.02 | 0.01 | 72 | 1006.5 |
| 20260904111556 | 74 | 52 | 4.0 | 19.0 | 0.00 | 0.02 | 0.01 | 71 | 1006.8 |
| 20260904110057 | 74 | 328 | 2.0 | 12.0 | 0.00 | 0.02 | 0.01 | 72 | 1007.0 |
| 20260904104559 | 74 | 200 | 5.0 | 19.0 | 0.00 | 0.02 | 0.01 | 73 | 1007.4 |
| 20260904103052 | 74 | 308 | 3.0 | 9.0 | 0.00 | 0.02 | 0.01 | 73 | 1007.7 |
| 20260904101559 | 72 | 217 | 2.0 | 15.0 | 0.00 | 0.02 | 0.01 | 76 | 1008.1 |
| 20260904100045 | 72 | 76 | 4.0 | 12.0 | 0.00 | 0.02 | 0.01 | 76 | 1008.3 |
| 20260904094544 | 72 | 263 | 3.0 | 14.0 | 0.00 | 0.02 | 0.01 | 77 | 1008.3 |
| 20260904093104 | 71 | 228 | 4.0 | 14.0 | 0.00 | 0.02 | 0.01 | 77 | 1008.4 |
| 20260904091540 | 72 | 159 | 4.0 | 13.0 | 0.00 | 0.02 | 0.01 | 76 | 1008.6 |
| 20260904090041 | 73 | 325 | 3.0 | 20.0 | 0.00 | 0.02 | 0.01 | 75 | 1008.9 |
| 20260904084536 | 72 | 113 | 3.0 | 15.0 | 0.00 | 0.02 | 0.01 | 75 | 1009.2 |
| 20260904083033 | 72 | 290 | 3.0 | 19.0 | 0.00 | 0.02 | 0.01 | 77 | 1009.2 |
| 20260904081530 | 72 | 184 | 4.0 | 12.0 | 0.00 | 0.02 | 0.01 | 79 | 1009.3 |
| 20260904080026 | 69 | 183 | 4.0 | 14.0 | 0.01 | 0.02 | 0.01 | 82 | 1009.6 |
| 20260904074524 | 69 | 160 | 3.0 | 12.0 | 0.01 | 0.02 | 0.01 | 82 | 1009.7 |
| 20260904073023 | 69 | 218 | 3.0 | 12.0 | 0.01 | 0.02 | 0.01 | 82 | 1010.1 |
| 20260904071518 | 67 | 229 | 5.0 | 10.0 | 0.01 | 0.02 | 0.01 | 83 | 1010.4 |
| 20260904070035 | 67 | 175 | 3.0 | 12.0 | 0.00 | 0.01 | 0.00 | 83 | 1010.5 |
| 20260904064513 | 67 | 173 | 3.0 | 10.0 | 0.00 | 0.01 | 0.00 | 84 | 1010.6 |
| 20260904063013 | 65 | 189 | 0.0 | 9.0 | 0.00 | 0.01 | 0.00 | 87 | 1010.8 |
| 20260904061505 | 65 | 204 | 2.0 | 8.0 | 0.00 | 0.01 | 0.00 | 87 | 1011.1 |
| 20260904060003 | 64 | 170 | 2.0 | 6.0 | 0.00 | 0.01 | 0.00 | 87 | 1011.3 |
| 20260904054600 | 64 | 204 | 2.0 | 7.0 | 0.00 | 0.01 | 0.00 | 88 | 1011.2 |
| 20260904053055 | 64 | 202 | 3.0 | 10.0 | 0.00 | 0.01 | 0.00 | 88 | 1011.8 |
| 20260904051553 | 63 | 176 | 1.0 | 7.0 | 0.00 | 0.01 | 0.00 | 88 | 1012.0 |
| 20260904050051 | 63 | 192 | 1.0 | 9.0 | 0.00 | 0.01 | 0.00 | 89 | 1011.9 |
| 20260904044550 | 63 | 202 | 1.0 | 10.0 | 0.00 | 0.01 | 0.00 | 89 | 1011.8 |
| 20260904043048 | 63 | 185 | 2.0 | 9.0 | 0.00 | 0.01 | 0.00 | 90 | 1011.7 |
| 20260904041552 | 63 | 162 | 2.0 | 4.0 | 0.00 | 0.01 | 0.00 | 90 | 1012.2 |
| 20260904040024 | 63 | 198 | 1.0 | 7.0 | 0.00 | 0.01 | 0.00 | 90 | 1012.4 |
| 20260904034540 | 62 | 152 | 2.0 | 6.0 | 0.00 | 0.01 | 0.00 | 91 | 1012.7 |
| 20260904033019 | 62 | 189 | 1.0 | 5.0 | 0.00 | 0.01 | 0.00 | 90 | 1012.8 |
| 20260904031518 | 62 | 190 | 0.0 | 3.0 | 0.00 | 0.01 | 0.00 | 90 | 1013.0 |